logo
App data

Multiscreens

A program in VR that lets you have as many virtual monitors as you want.
Store | Hub | SteamDB
Developer: Phylliida Publisher: Phylliida
Genre: Utilities, Early Access
Languages: English
Tags: Early Access (27), Utilities (24)
Category: Partial Controller Support
Release date: Aug 17, 2016
Price: $9.99
Owners: 0 .. 20,000
Followers: 258

Steam Spy is still in beta, so expect major bugs.

Owners data:

Access restricted.

This feature is only available to users with special access rights. Sorry.

If you want to proceed, you need to register or log in first and then back Steam Spy on Patreon. Look for Indie or Pro pledge.

Don't forget to use the same email as on Steam Spy!

Audience in 2 weeks:

Access restricted.

This feature is only available to users with special access rights. Sorry.

If you want to proceed, you need to register or log in first and then back Steam Spy on Patreon. Look for Indie or Pro pledge.

Don't forget to use the same email as on Steam Spy!

Peak daily concurrent players:

CCU data courtesy of SteamDB. Used with permission.

Hourly concurrent players:

YouTube:

The views data is based on top 50 videos uploaded last week. Actual number of views might be more than the number shown.

The displayed number of videos uploaded yesterday is limited to 50, so if there were more videos uploaded, the number will still show 50.

If the game has commonly used word as its name (like "FEAR" or "Volume") its number of Youtube views might be wrong.

Games similar to this one:

# Game Release date
Price
Score rank
(Userscore / Metascore)
Owners
Players
Playtime (Median)
1 Pozzo Jello Crusade Sep 1, 2016 $2.99N/A (N/A)0 .. 20,0000%00:00 (00:00)
2 Grandpa's Table May 24, 2016 $4.99100% (100%)0 .. 20,00040%05:20 (03:33)
3 Roads of Rome 2 Oct 16, 2015 $3.99N/A (N/A)0 .. 20,0000%00:00 (00:00)
4 Quell Reflect May 14, 2015 $3.9997% (97%)0 .. 20,0000%00:00 (00:00)
5 Stephen's Sausage Roll Apr 18, 2016 $29.9997% (97%/90%)20,000 .. 50,0000%00:00 (00:00)
6 A Matter of Murder Apr 18, 2016 $2.99N/A (N/A)0 .. 20,0000%00:00 (00:00)
7 Creeper World: Anniversary Edition Nov 16, 2016 $4.9995% (96%)0 .. 20,0000%00:00 (00:00)
8 Pictopix Jan 5, 2017 $6.9990% (94%)0 .. 20,0000%00:00 (00:00)
9 Slashy Hero Oct 18, 2016 $6.99N/A (N/A)0 .. 20,0000%00:00 (00:00)
10 Star Vikings Forever Oct 6, 2016 $9.99N/A (N/A)0 .. 20,0000%00:00 (00:00)
11 Farm Frenzy: Heave Ho Aug 26, 2015 $4.99N/A (N/A)0 .. 20,0000%00:00 (00:00)
12 Axes and Acres Apr 7, 2016 $9.9971% (88%)0 .. 20,0000%00:00 (00:00)
13 Loot Hound Nov 17, 2015 $2.9969% (87%)0 .. 20,0000%00:00 (00:00)
14 Army of Pixels Oct 29, 2015 $4.99N/A (N/A)0 .. 20,0000%00:00 (00:00)
15 Babel: Tower to the Gods Apr 5, 2016 $9.99N/A (N/A)0 .. 20,0000%00:00 (00:00)
16 OESE Jun 14, 2016 $2.99N/A (N/A)0 .. 20,0000%00:00 (00:00)
17 Cosmos Crash VR Sep 1, 2016 $7.99N/A (N/A)0 .. 20,0000%00:00 (00:00)
18 Welcome to Boon Hill Oct 31, 2015 $199.99N/A (N/A)0 .. 20,0000%00:00 (00:00)
19 YANKAI'S TRIANGLE Nov 2, 2016 $2.99N/A (N/A)0 .. 20,0000%00:00 (00:00)
20 Directionless May 31, 2016 $0.9954% (81%)0 .. 20,0000%00:00 (00:00)
21 PowersVR Feb 8, 2017 $9.99N/A (N/A)0 .. 20,0000%00:00 (00:00)
22 Flower Design Jan 10, 2017 $1.9954% (81%)20,000 .. 50,0000%00:00 (00:00)
23 Ricerca VR May 1, 2016 $0.99N/A (N/A)0 .. 20,0000%00:00 (00:00)
24 Danko and treasure map Jan 6, 2017 $1.9952% (80%)20,000 .. 50,0000.83%04:32 (01:30)
25 Forgotten Ball Mar 3, 2016 $0.99N/A (N/A)0 .. 20,0000%00:00 (00:00)
26 The Unwelcomed Jan 30, 2018 $14.99N/A (N/A)0 .. 20,0000%00:00 (00:00)
27 Brick Inventions Mar 23, 2016 $4.99N/A (N/A)0 .. 20,0000%00:00 (00:00)
28 Drunkn Bar Fight Nov 28, 2016 $11.9949% (79%)0 .. 20,0000%00:00 (00:00)
29 VRC PRO Mar 24, 2015 $44.9947% (78%)0 .. 20,0000%00:00 (00:00)
30 Beat Boxer Nov 22, 2016 $8.99N/A (N/A)0 .. 20,0000%00:00 (00:00)
31 Infinite Mini Golf Jul 25, 2017 $14.99N/A (N/A)0 .. 20,0000%00:00 (00:00)
32 PRINCIPIA: Master of Science Sep 9, 2016 $9.9944% (76%)0 .. 20,0000%00:00 (00:00)
33 Planet Stronghold: Colonial Defense Jan 15, 2016 $19.99N/A (N/A)0 .. 20,0000%00:00 (00:00)
34 Pulsen Jul 27, 2015 $14.99N/A (N/A)0 .. 20,0000%00:00 (00:00)
35 Neon Warp Jul 29, 2016 $1.99N/A (N/A)0 .. 20,0000%00:00 (00:00)
36 Kunlun Fight Dec 17, 2016 $19.99N/A (N/A)0 .. 20,0000%00:00 (00:00)
37 All the Delicate Duplicates Feb 17, 2017 $7.99N/A (N/A)0 .. 20,0000%00:00 (00:00)
38 AM Model Viewer May 17, 2017 $4.99N/A (N/A)0 .. 20,0000%00:00 (00:00)
39 90 Minute Fever - Football (Soccer) Manager MMO Jul 12, 2016 $0.9936% (72%)0 .. 20,0000%00:00 (00:00)
40 (VR)西汉帝陵 The Han Dynasty Imperial Mausoleums Jan 20, 2017 $1.99N/A (N/A)0 .. 20,0000%00:00 (00:00)
41 Armor Clash Oct 22, 2015 $4.9931% (69%)0 .. 20,0000%00:00 (00:00)
42 So Much Blood Jun 3, 2016 $2.99N/A (N/A)0 .. 20,0000%00:00 (00:00)
43 VR Home Feb 16, 2017 $7.99N/A (N/A)0 .. 20,0000%00:00 (00:00)
44 Pyro VR Feb 8, 2017 $8.99N/A (N/A)0 .. 20,0000%00:00 (00:00)
45 Hiragana Pixel Party Mar 18, 2016 $7.99N/A (N/A)0 .. 20,0000%00:00 (00:00)
46 Island Tribe Oct 19, 2015 $2.99N/A (N/A)0 .. 20,0000%00:00 (00:00)
47 Motorbike May 9, 2011 $9.9924% (64%)0 .. 20,0000%00:00 (00:00)
48 Freedom Poopie Oct 16, 2015 $2.99N/A (N/A)0 .. 20,0000%00:00 (00:00)
49 Off-Road Paradise: Trial 4x4 Dec 9, 2016 $19.9921% (61%)0 .. 20,0000%00:00 (00:00)
50 Ozapell Basic Oct 23, 2017 $19.99N/A (N/A)0 .. 20,0000%00:00 (00:00)
51 XenoBloom Sep 23, 2015 $4.99N/A (N/A)0 .. 20,0000%00:00 (00:00)
52 10 Minute Barbarian Jan 27, 2016 $4.99N/A (N/A)0 .. 20,0000%00:00 (00:00)
53 Stream Buddy Oct 19, 2016 $3.99N/A (N/A)0 .. 20,0000%00:00 (00:00)
54 Hell`s Little Story Feb 9, 2017 $2.99N/A (N/A)100,000 .. 200,0000%00:00 (00:00)
55 Fiery Disaster Nov 7, 2016 $1.99N/A (N/A)0 .. 20,0000%00:00 (00:00)
56 Spectrum: First Light Jul 24, 2015 $9.99N/A (N/A)0 .. 20,0000%00:00 (00:00)
57 Pinheads Bowling VR Dec 22, 2016 $11.99N/A (N/A)0 .. 20,0000%00:00 (00:00)
58 Zombie Gotchi Mar 23, 2016 $9.99N/A (N/A)0 .. 20,0000%00:00 (00:00)
59 EEP Train Simulator Mission Apr 5, 2017 $19.99N/A (N/A)0 .. 20,0000%00:00 (00:00)
60 When In Rome Oct 29, 2015 $4.99N/A (N/A)0 .. 20,0000%00:00 (00:00)
61 Minigame Party VR Apr 5, 2016 $0.99N/A (N/A)0 .. 20,0000%00:00 (00:00)
62 GravBlocks Dec 16, 2015 $1N/A (N/A)0 .. 20,0000%00:00 (00:00)
63 Crazy Sapper 3D Oct 26, 2016 $4.99N/A (N/A)0 .. 20,0004.17%01:58 (00:39)
64 Everything is Black and White Apr 23, 2015 $1.99N/A (N/A)0 .. 20,0000%00:00 (00:00)
65 Veer Apr 13, 2016 $2.99N/A (N/A)0 .. 20,0000%00:00 (00:00)
66 Balloon Chair Death Match Jul 13, 2017 N/AN/A (N/A)0 .. 20,0000%00:00 (00:00)
67 Zombie Trigger Aug 2016 $2.99N/A (N/A)0 .. 20,0000%00:00 (00:00)
68 Man Alive May 25, 2015 $4.99N/A (N/A)0 .. 20,0000%00:00 (00:00)
69 GI Racing 2.0 Jul 22, 2016 $9.99N/A (N/A)0 .. 20,0000%00:00 (00:00)
70 Sparky's Hunt Aug 18, 2016 $0.99N/A (N/A)0 .. 20,0000%00:00 (00:00)
71 Lucid Awakening 2 Jan 7, 2015 $8.99N/A (N/A)0 .. 20,0000%00:00 (00:00)
72 Tank Hero VR Aug 25, 2016 $2.99N/A (N/A)0 .. 20,0000%00:00 (00:00)
73 Lectrovolt II Aug 23, 2016 $2.99N/A (N/A)0 .. 20,0000%00:00 (00:00)
74 Roads of Rome 3 Oct 19, 2015 $3.99N/A (N/A)0 .. 20,0000%00:00 (00:00)

Tags over time:

Access restricted.

This feature is only available to users with special access rights. Sorry.

If you want to proceed, you need to register or log in first and then back Steam Spy on Patreon. Look for Indie or Pro pledge.

Don't forget to use the same email as on Steam Spy!

Owners of this game also own:

Access restricted.

This feature is only available to users with special access rights. Sorry.

If you want to proceed, you need to register or log in first and then back Steam Spy on Patreon. Look for Indie or Pro pledge.

Don't forget to use the same email as on Steam Spy!

Playtime distribution:

Access restricted.

This feature is only available to users with special access rights. Sorry.

If you want to proceed, you need to register or log in first and then back Steam Spy on Patreon. Look for Indie or Pro pledge.

Don't forget to use the same email as on Steam Spy!

Playtime (2 weeks):

Access restricted.

This feature is only available to users with special access rights. Sorry.

If you want to proceed, you need to register or log in first and then back Steam Spy on Patreon. Look for Indie or Pro pledge.

Don't forget to use the same email as on Steam Spy!

User reviews:

Login required.

Please register or log in to see this information.